Dewpoint
-10 -9 -1 -2 -5 -7 -6 -2 -4 -3 3 2 5 11 10 10 12 14 13 14 13 14 13 13 12 11 9 8 10 12 12 12 12 12 11 11 11 11 12 11 10 10 6 1 8 7 13 12 8
-9 -2 -3 -4 -9 -11 -7 -4 -3 -5 -4 -3 3 9 10 10 10 11 13 13 13 14 14 14 12 11 9 6 8 11 11 11 11 10 10 11 11 12 12 11 11 11 8 -1 -0 10 10 12 8
-6 -5 -5 -8 -11 -13 -5 -3 -4 -5 -3 1 4 5 7 8 6 10 12 13 13 14 13 14 13 12 9 8 6 6 7 7 7 8 10 10 11 12 12 13 12 12 10 3 -8 3 10 9 8
-5 -6 -7 -12 -7 -4 -4 -4 -5 -5 -5 -1 2 3 0 0 2 2 10 13 13 14 14 12 11 12 11 8 7 7 7 9 10 10 11 12 12 12 13 14 13 13 11 7 -6 9 8 8 8
-7 -8 -9 -5 -3 -4 -4 -4 -4 -5 -5 -3 1 1 -1 -1 -2 -3 -1 12 14 14 14 13 10 11 12 11 9 8 8 7 9 8 10 12 12 13 14 13 13 13 13 8 -5 4 9 8 6
-7 -9 -11 -8 -3 -4 -4 -3 -4 -5 -5 -4 -2 -1 -2 -2 -2 -3 -4 -1 11 14 13 13 12 13 11 11 10 9 8 8 7 8 9 11 13 13 14 13 12 11 10 8 -3 1 9 10 6
-6 -8 -6 -4 -3 -4 -4 -2 -4 -4 -5 -4 -3 -2 -3 -2 -3 -3 -4 -4 -5 10 14 13 13 13 12 10 12 11 8 8 7 9 10 11 13 13 13 12 9 9 -1 5 -4 -2 9 9 9
-5 -7 -5 -4 -4 -4 -3 -3 -2 -3 -4 -3 -3 -5 -4 -3 -3 -4 -5 -5 -5 3 13 14 14 13 13 13 11 12 11 10 10 12 12 12 11 11 11 11 10 2 -5 2 -8 2 9 8 8
-6 -6 -4 -4 -4 -4 -3 -5 -4 -3 -5 -5 -3 -4 -3 -3 -4 -4 -6 -6 -6 -6 4 12 14 14 13 12 12 11 12 11 12 13 13 12 12 12 11 8 2 3 -5 -4 -7 6 9 6 7
-3 -4 -3 -5 -5 -5 -4 -4 -4 -4 -5 -6 -5 -4 -4 -4 -5 -3 -3 -3 -7 -6 -4 2 5 6 12 13 12 12 12 12 12 12 12 13 13 12 9 5 5 1 -1 -2 4 8 7 5 9
-3 -3 -3 -3 -2 -2 -3 -4 -2 -3 -6 -6 -7 -5 -3 -5 -3 -4 -3 -3 -5 -6 -6 -6 -5 0 2 9 13 12 12 13 12 12 12 12 11 9 9 9 5 3 4 9 8 10 9 8 10
-4 -3 -4 -2 -1 -1 -2 -2 -3 -3 -5 -4 -4 -4 -5 -4 -4 -4 -2 -3 -4 -5 -5 -6 -6 -7 -6 -3 1 7 12 12 13 13 13 12 12 11 10 9 6 8 9 9 11 10 8 10 10
-4 -3 -2 -2 -1 -1 -1 -2 -3 -3 -3 -3 -4 -5 -4 -4 -4 -4 -4 -4 -3 -4 -5 -6 -6 -5 -6 -7 -7 -5 -1 8 12 12 13 13 12 12 10 9 6 7 9 9 10 8 8 8 10
-1 -1 -2 -1 -2 -1 -2 -3 -2 -4 -3 -4 -5 -4 -4 -4 -4 -4 -4 -3 -5 -6 -6 -6 -6 -7 -7 -6 -5 -6 -7 -5 3 10 12 12 12 12 10 10 8 0 8 9 8 8 8 8 7
-3 -3 -4 -4 -3 -2 -3 -4 -2 -4 -4 -4 -4 -4 -4 -4 -4 -3 -3 -3 -4 -4 -4 -5 -5 -6 -6 -6 -7 -6 -4 -6 -5 -3 7 12 12 10 11 11 9 2 6 8 7 8 8 8 8
-6 -6 -7 -6 -4 -3 -4 -9 -5 -4 -4 -4 -4 -4 -5 -3 -3 -3 -2 -2 -3 -3 -3 -3 -4 -5 -5 -6 -7 -7 -7 -4 -5 -5 -1 10 11 11 11 10 10 9 7 7 8 7 7 8 7
-9 -10 -8 -7 -4 -4 -4 -7 -7 -4 -4 -4 -4 -5 -6 -3 -1 -2 -2 -2 -2 -3 -3 -3 -3 -4 -4 -6 -7 -7 -7 -7 -3 -3 -4 6 10 10 11 11 10 10 8 5 7 7 8 8 7
-7 -8 -6 -5 -5 -3 -4 -5 -8 -7 -5 -5 -6 -5 -4 -3 -0 -1 -2 -2 -3 -3 -3 -3 -4 -4 -4 -4 -5 -6 -6 -5 -4 3 -3 1 5 9 10 11 11 10 9 7 5 8 7 8 7
-4 -4 -5 -5 -4 -2 -5 -4 -7 -4 -3 -3 -3 -3 -4 -3 -1 -2 -2 -3 -5 -4 -3 -2 -2 -1 -0 -1 -2 -3 -2 -1 -2 -0 4 3 7 8 9 10 10 9 9 8 6 7 5 7 7
-3 -4 -7 -5 -5 -2 -4 -4 -5 -4 -3 -3 -3 -4 -3 -3 -3 -3 -5 -5 -3 -2 -1 -1 -1 -0 0 1 2 2 1 1 0 0 2 7 2 7 9 10 9 9 9 8 7 5 6 5 4
-4 -5 -5 -2 -2 -2 -1 -5 -4 -4 -4 -3 -3 -3 -3 -4 -4 -3 -4 -2 -1 -0 -0 -1 -2 -0 1 1 3 3 2 1 2 2 3 5 3 7 7 8 8 9 9 8 7 6 5 4 5
-5 -4 -1 -0 -1 -4 -1 -2 -4 -4 -3 -4 -4 -5 -5 -4 -4 -5 -3 -4 -2 -1 -0 -2 -3 -4 -1 1 1 3 4 4 2 3 5 6 6 3 8 6 6 6 8 8 8 8 8 5 4
-3 -2 -0 0 0 2 -1 1 -4 -5 -3 -3 -6 -5 -4 -5 -5 -4 -4 -6 -3 -1 -0 -1 -1 -2 -4 -5 0 1 3 4 3 4 5 6 5 7 7 7 6 7 8 7 6 6 7 4 3
-2 -2 -3 1 2 3 1 -1 -4 -4 -5 -5 -6 -5 -5 -5 -5 -5 -3 -3 -3 0 1 0 1 1 -1 -5 -5 -1 4 6 6 5 5 5 5 6 7 7 6 6 5 7 7 7 6 6 4
-1 -3 1 1 3 -2 -1 -0 -3 -4 -5 -5 -5 -6 -6 -4 -2 -2 -3 -2 -2 1 2 2 2 -0 -4 -5 -6 -1 -0 4 6 5 5 4 5 6 6 6 7 7 7 7 6 7 6 6 4
-1 -3 2 -0 -1 -4 -3 -0 -3 -5 -5 -6 -6 -5 -4 -1 1 2 -0 -1 3 2 2 2 -0 -2 -1 -3 -4 0 1 3 5 6 5 5 4 5 5 7 7 6 6 6 6 6 6 6 6
-1 -1 -3 1 -1 2 -2 -4 -4 -5 -6 -5 -4 -4 -2 -0 2 3 3 3 3 3 2 -0 1 1 2 2 2 1 1 2 4 6 6 5 4 5 5 5 6 6 7 6 6 6 6 6 6
-1 -3 -1 0 1 -1 -3 -4 -4 -3 -4 -5 -4 -3 -2 -1 1 2 3 3 2 -0 -1 1 1 2 3 3 4 4 4 3 4 5 6 5 5 6 5 4 4 5 6 6 6 6 6 6 6
-0 -0 -0 -2 -1 1 -0 -4 -4 -4 -5 -5 -6 -5 -4 -2 -1 0 1 2 1 1 0 1 0 1 2 3 4 4 5 5 4 6 4 4 5 5 5 5 4 6 6 5 5 6 6 6 6
-2 -2 -2 -0 1 1 1 -2 -5 -5 -7 -7 -7 -6 -6 -5 -4 -3 -3 -0 1 1 1 1 1 -0 0 2 3 4 5 4 5 5 6 5 6 5 5 5 5 5 5 5 5 5 6 6 5
Wind_Speed
5 9 12 4 4 3 4 3 1 3 2 3 4 6 7 7 7 3 1 2 3 4 14 13 13 12 12 14 15 13 11 10 10 13 11 11 12 11 12 13 10 7 7 9 10 9 12 14 13
9 12 6 1 3 6 5 2 4 5 5 5 1 1 1 5 5 3 1 6 2 3 13 11 12 12 13 13 14 14 12 11 10 9 9 10 11 11 12 13 11 8 6 8 10 10 13 10 9
12 8 1 2 1 3 3 3 3 2 5 2 2 4 3 3 4 3 9 7 4 2 13 12 11 11 11 13 13 13 12 11 11 10 10 11 12 12 13 12 12 8 5 6 7 10 10 9 8
6 2 3 2 5 4 4 4 5 1 1 6 2 5 4 4 3 6 4 6 2 2 12 13 14 11 12 12 13 13 13 12 11 10 12 12 12 12 13 14 9 6 3 4 6 10 9 10 10
2 1 2 3 4 4 4 3 4 3 2 6 2 3 4 3 5 8 9 7 2 4 8 10 12 13 12 12 12 13 13 13 12 12 11 12 12 13 16 12 7 7 7 4 6 11 11 12 10
1 1 2 3 4 4 2 3 1 3 4 4 3 2 3 2 4 7 11 11 7 2 9 9 9 13 15 14 14 15 15 13 13 13 13 13 13 15 12 11 11 12 9 7 6 13 12 11 13
2 2 3 4 6 5 2 2 1 3 2 4 1 1 3 2 3 7 9 10 9 2 7 10 9 10 14 17 15 15 15 15 15 15 15 15 15 14 14 14 14 12 8 9 8 15 17 14 14
3 2 3 2 5 3 3 3 3 5 2 3 1 3 3 0 2 5 7 8 7 5 1 8 12 10 9 12 15 15 15 16 15 15 16 15 13 15 15 15 18 15 10 10 10 18 17 19 16
3 2 4 2 1 3 3 3 2 3 5 4 3 2 0 1 3 6 5 4 5 3 3 3 4 13 12 14 15 16 15 15 14 15 15 14 13 16 17 16 19 17 11 11 12 14 17 19 16
4 2 2 3 3 2 2 3 3 3 5 5 5 4 2 3 3 5 5 5 2 3 3 3 4 4 8 15 16 17 18 17 18 19 19 18 15 12 12 16 18 15 11 13 15 14 16 18 16
3 3 4 3 2 1 1 1 2 4 3 2 3 4 5 5 4 4 4 4 3 3 4 4 6 6 6 6 14 16 19 21 21 20 18 18 18 17 14 12 13 9 15 13 15 17 13 16 16
4 4 1 3 0 2 3 2 3 4 2 2 3 4 4 3 3 4 1 3 4 4 5 6 6 7 8 8 9 10 18 22 25 25 25 24 22 19 13 11 8 11 14 13 15 19 18 16 14
5 4 1 1 3 6 6 6 6 10 9 5 3 3 3 4 2 2 4 5 5 5 7 8 8 8 8 9 10 12 12 16 25 28 30 31 29 22 17 15 10 13 14 15 16 19 19 18 17
3 3 3 2 1 1 5 8 5 3 10 9 4 1 2 3 4 4 6 5 5 6 7 9 10 11 10 10 10 12 13 14 17 23 28 30 31 22 21 20 13 16 16 17 21 20 18 20 22
3 3 2 4 5 1 7 4 5 4 9 10 5 3 1 4 5 6 5 3 1 3 6 9 12 15 14 14 14 13 13 15 16 17 21 22 26 32 30 23 19 16 24 23 21 21 19 22 22
2 3 3 3 9 2 7 2 3 6 8 12 11 7 2 3 8 8 5 3 3 5 8 11 14 17 18 19 18 17 16 16 16 17 18 20 21 24 28 32 23 19 25 23 22 22 21 21 23
1 1 2 2 3 6 3 8 2 3 7 14 15 13 9 7 9 8 5 4 7 10 13 16 18 20 22 23 21 19 17 17 17 17 18 18 19 20 26 27 28 27 22 30 26 24 21 19 23
2 3 3 4 2 5 11 14 13 17 14 20 17 12 8 11 7 6 4 6 9 13 16 19 21 23 24 23 21 17 16 17 18 16 17 19 21 21 20 27 29 33 29 35 30 26 21 20 23
0 4 6 3 2 8 5 15 17 11 7 4 6 7 9 8 3 3 5 9 12 15 17 19 20 20 19 19 17 15 13 14 17 18 17 17 19 21 21 18 27 32 33 33 29 29 24 24 24
3 6 4 5 1 7 10 15 4 8 10 8 6 8 9 4 3 4 8 12 14 15 16 18 19 18 17 17 15 15 15 14 14 15 17 15 18 21 21 23 19 19 31 32 32 32 33 32 29
3 5 5 5 11 2 11 1 3 6 10 12 12 10 9 8 8 10 13 14 14 16 18 20 20 18 17 17 16 14 14 15 15 14 15 19 18 19 22 19 24 22 26 36 38 39 37 39 38
4 1 5 9 8 5 5 1 5 4 7 10 12 12 12 12 13 17 16 16 16 18 20 18 18 19 19 17 17 16 16 15 15 15 14 15 20 19 21 23 21 24 28 34 38 39 39 38 43
3 4 6 5 5 4 1 3 4 2 6 7 11 13 12 15 17 18 19 18 18 18 19 20 20 19 19 19 18 19 18 18 15 12 16 15 18 20 21 23 21 24 26 31 29 39 42 38 43
4 3 3 2 1 2 4 5 4 4 5 6 9 10 14 20 21 18 17 17 17 18 18 20 22 23 22 21 20 19 17 16 15 12 15 18 17 20 22 22 23 23 26 37 32 40 41 46 46
1 4 3 2 2 1 2 3 5 8 5 9 9 14 17 20 21 22 21 19 16 16 18 22 25 27 25 24 23 21 20 18 17 15 13 17 19 21 21 20 22 25 26 30 26 40 44 44 43
2 1 1 4 3 3 0 5 5 7 9 10 12 15 17 20 20 21 20 18 13 15 20 25 28 30 29 26 25 21 18 19 19 17 16 14 17 18 19 19 22 21 24 26 25 34 43 42 41
1 1 2 1 1 3 2 3 7 6 10 16 18 19 20 22 23 23 20 17 16 19 23 26 28 29 28 24 22 20 19 18 18 17 15 15 17 18 21 20 20 20 23 24 26 28 41 44 44
3 4 2 2 3 5 4 5 2 6 11 13 17 19 19 19 20 20 19 18 19 22 24 24 26 27 26 22 20 18 17 18 17 16 16 14 15 18 19 20 20 21 20 22 24 27 36 40 43
2 2 1 2 2 3 4 2 5 7 8 10 13 14 16 17 19 18 20 20 21 22 26 27 27 28 28 24 20 18 15 13 17 15 13 13 16 18 20 17 18 19 20 20 19 29 29 36 40
2 4 5 4 4 2 3 5 6 8 7 8 10 13 15 17 18 19 20 20 22 24 30 30 30 30 28 26 22 18 15 12 8 10 12 13 17 19 20 20 22 20 18 19 18 25 30 34 39
Wind_Direction
127 132 135 119 202 236 161 100 360 70 107 40 346 15 55 37 0 40 354 94 289 280 195 196 190 191 192 194 196 195 185 181 178 179 186 185 187 189 187 178 167 145 116 127 134 137 144 146 140
129 131 121 140 234 203 133 79 103 39 0 318 148 273 66 70 43 43 58 337 317 186 186 189 197 196 195 197 200 203 202 198 198 210 208 200 195 195 194 192 177 158 131 127 151 158 166 155 141
131 131 155 136 157 230 122 101 41 25 19 60 123 50 38 45 16 24 352 344 310 233 197 201 199 198 200 200 201 206 212 212 213 213 206 205 203 201 188 183 177 168 151 135 150 170 182 182 160
132 80 65 238 110 86 72 69 8 22 92 39 35 92 78 50 18 17 17 359 295 237 192 212 210 206 204 204 207 210 218 217 216 209 210 209 208 203 188 173 172 187 193 144 155 164 184 184 178
107 100 119 102 91 108 90 35 14 52 71 31 1 98 96 52 51 30 29 21 80 156 182 199 211 217 213 208 212 213 217 220 219 220 216 209 204 201 187 181 214 246 253 203 168 170 187 195 187
38 302 170 150 129 131 110 7 338 43 45 46 89 121 101 80 36 36 35 31 40 158 189 190 224 229 222 221 223 227 226 224 222 221 218 211 197 182 190 213 229 251 237 220 188 174 180 178 181
48 357 59 107 123 149 103 356 17 8 14 47 358 218 129 105 35 19 16 21 20 29 186 195 214 233 227 221 226 224 228 228 226 221 210 203 200 202 221 239 249 270 238 218 197 181 179 186 186
55 42 104 58 160 104 56 360 353 341 33 338 276 218 169 320 345 2 357 351 3 13 218 221 222 226 226 227 230 230 235 231 225 217 212 214 231 243 235 247 265 285 250 211 202 181 179 191 192
55 111 94 83 135 67 15 334 355 312 296 283 253 232 130 244 330 346 341 336 331 341 335 288 246 240 235 231 234 234 235 229 218 215 207 227 237 256 263 261 277 287 241 200 190 171 183 189 183
18 40 98 133 119 84 12 325 331 290 303 262 239 226 290 315 319 1 11 18 357 326 295 300 305 299 254 240 236 236 238 228 212 210 221 226 224 231 235 260 271 279 200 171 165 173 190 182 181
28 79 138 140 130 151 19 298 307 298 248 256 255 238 288 295 301 334 345 359 9 345 331 307 295 296 292 283 248 244 241 235 225 224 226 237 245 246 241 246 259 223 178 177 183 182 184 182 190
114 73 59 135 184 282 308 293 274 251 295 279 267 260 255 283 294 305 352 50 52 30 11 356 328 304 289 280 271 264 247 239 236 237 238 236 241 240 223 227 246 192 193 191 183 193 194 192 194
86 132 101 20 306 305 294 266 276 254 232 250 252 258 261 258 235 116 117 95 67 45 33 22 9 349 327 299 280 266 265 253 244 242 243 239 234 236 237 241 248 203 197 194 194 195 204 191 194
73 90 93 94 22 294 304 297 295 211 179 179 154 230 233 173 173 152 131 111 77 59 37 18 3 350 337 324 309 289 266 261 254 248 249 242 225 244 257 245 243 215 193 196 198 199 209 204 209
100 144 185 50 337 238 319 230 227 193 184 199 194 77 155 222 199 163 155 152 68 9 355 346 341 338 330 321 306 295 284 273 264 257 250 249 240 239 249 237 233 220 207 202 197 201 208 203 207
172 194 244 48 348 341 328 294 160 194 221 236 241 256 290 202 166 171 184 210 295 318 322 323 323 321 316 313 308 293 278 270 267 261 254 241 246 233 239 232 228 220 206 211 207 203 211 212 212
21 308 312 270 60 322 323 295 174 190 257 253 249 260 272 196 164 175 199 255 297 309 311 312 313 313 311 309 305 295 278 264 260 257 255 244 248 249 240 235 239 239 217 213 209 209 207 215 209
301 305 274 274 14 321 291 271 300 303 281 270 258 255 219 182 167 190 231 284 306 311 314 316 314 312 309 306 304 296 282 266 257 255 254 244 241 245 248 249 237 231 217 209 202 206 204 220 214
228 275 282 291 17 322 299 299 316 337 328 273 205 180 167 161 185 245 299 312 319 321 323 328 329 326 318 310 304 298 290 277 264 254 251 252 233 237 244 251 242 228 219 215 211 199 206 211 214
290 293 315 291 224 322 311 307 354 22 33 39 96 113 128 96 61 337 333 330 329 332 333 333 332 334 334 324 314 302 297 289 276 261 249 246 243 237 238 243 244 237 230 211 206 215 196 206 220
317 312 333 314 319 212 309 215 90 61 65 70 72 86 83 69 34 4 353 345 338 331 331 334 338 336 332 326 319 307 293 288 287 274 257 248 253 232 233 240 236 248 237 221 211 207 212 201 197
297 1 318 314 325 315 354 318 77 18 85 72 85 76 66 54 30 8 353 344 333 331 331 333 337 341 336 328 319 312 300 291 291 275 259 250 246 237 234 234 237 235 234 219 221 218 216 216 201
333 340 312 308 296 299 52 279 66 38 92 92 85 78 57 17 352 342 344 335 329 324 325 326 328 332 328 326 317 309 301 294 293 283 254 253 244 231 229 229 235 236 237 244 224 220 212 212 210
313 257 254 215 254 231 30 347 80 33 14 102 89 52 8 353 348 340 332 331 322 317 319 320 322 325 324 321 317 306 292 285 284 286 270 257 249 228 231 232 228 236 232 234 232 221 223 212 214
313 300 303 249 234 344 68 291 37 32 48 59 29 5 359 356 353 348 344 339 332 324 325 326 327 325 323 320 316 305 286 277 274 276 275 257 246 241 233 230 230 228 230 235 240 231 227 220 213
64 74 151 283 283 303 238 227 127 90 68 40 15 5 4 2 358 356 354 355 351 340 334 331 330 327 325 319 314 307 291 272 273 273 261 258 245 239 238 240 238 232 233 240 236 237 235 221 229
105 175 79 263 265 264 223 192 114 109 35 19 14 10 6 3 2 0 1 0 351 343 340 336 333 332 329 323 317 311 298 277 265 272 264 253 248 239 236 244 239 231 231 234 240 233 233 228 230
302 134 202 184 263 269 206 262 182 42 11 11 12 8 1 357 357 357 357 354 350 347 344 342 341 339 336 330 325 318 315 290 254 259 263 254 249 236 237 238 236 236 235 234 234 238 233 231 227
185 197 192 305 242 272 298 200 98 66 40 19 11 5 359 354 353 350 349 349 353 354 353 348 345 343 340 333 321 313 309 309 246 248 257 253 248 245 232 230 234 243 236 230 239 233 240 227 232
255 229 224 238 193 233 318 270 120 70 51 32 14 5 1 3 360 359 356 350 351 352 355 349 348 346 338 331 322 313 304 297 277 256 259 248 247 235 231 236 240 241 234 225 234 236 233 237 235
Height
1505 1506 1508 1510 1512 1506 1510 1517 1517 1516 1515 1520 1521 1519 1517 1518 1517 1520 1523 1522 1521 1522 1524 1524 1525 1526 1528 1530 1531 1532 1534 1535 1536 1537 1539 1538 1539 1540 1541 1541 1543 1543 1544 1544 1545 1545 1545 1546 1547
1506 1508 1510 1510 1508 1507 1510 1518 1518 1520 1522 1521 1521 1520 1519 1520 1522 1523 1523 1522 1521 1522 1524 1526 1525 1527 1528 1530 1532 1532 1534 1535 1536 1537 1538 1540 1540 1540 1541 1542 1542 1544 1544 1545 1545 1546 1547 1548 1549
1507 1509 1511 1508 1509 1503 1513 1521 1521 1523 1523 1521 1521 1522 1522 1524 1524 1523 1523 1521 1521 1522 1525 1525 1526 1527 1529 1530 1532 1533 1534 1535 1536 1537 1538 1539 1540 1541 1541 1541 1543 1544 1545 1545 1545 1547 1548 1549 1550
1510 1511 1513 1508 1513 1520 1519 1521 1524 1522 1523 1522 1522 1521 1526 1525 1526 1524 1523 1522 1521 1522 1524 1524 1526 1527 1528 1530 1532 1533 1534 1534 1536 1536 1537 1539 1540 1541 1541 1542 1543 1544 1545 1545 1546 1547 1548 1550 1551
1511 1511 1509 1513 1519 1521 1523 1526 1526 1522 1524 1523 1523 1523 1526 1527 1526 1525 1523 1521 1520 1521 1522 1525 1525 1527 1528 1529 1531 1532 1533 1534 1535 1536 1537 1538 1539 1539 1540 1541 1543 1544 1544 1544 1545 1547 1548 1550 1551
1513 1512 1508 1511 1520 1523 1525 1527 1526 1524 1524 1524 1524 1524 1527 1527 1526 1525 1523 1521 1521 1521 1522 1524 1525 1525 1526 1527 1529 1531 1532 1534 1534 1535 1536 1537 1538 1539 1540 1541 1541 1542 1542 1543 1545 1546 1548 1550 1551
1513 1510 1518 1517 1520 1523 1526 1529 1526 1526 1525 1526 1527 1524 1527 1528 1526 1525 1523 1523 1521 1521 1521 1522 1524 1524 1525 1526 1528 1529 1531 1532 1532 1533 1535 1536 1538 1539 1539 1539 1540 1541 1541 1542 1543 1545 1548 1550 1552
1517 1516 1522 1523 1523 1524 1529 1530 1530 1529 1527 1528 1527 1524 1525 1527 1525 1524 1524 1523 1522 1521 1521 1521 1521 1523 1523 1526 1527 1528 1529 1530 1531 1532 1534 1536 1537 1538 1538 1538 1538 1538 1539 1540 1542 1544 1547 1549 1551
1517 1515 1521 1527 1527 1529 1532 1530 1531 1530 1529 1528 1528 1527 1527 1526 1525 1524 1524 1523 1522 1521 1520 1520 1520 1521 1522 1523 1524 1525 1526 1528 1530 1531 1533 1535 1536 1535 1534 1535 1534 1536 1537 1539 1541 1544 1546 1549 1551
1520 1517 1524 1527 1527 1529 1531 1531 1531 1530 1528 1527 1527 1527 1527 1526 1525 1525 1524 1523 1522 1521 1521 1520 1519 1519 1519 1520 1521 1523 1524 1526 1527 1529 1530 1533 1534 1534 1534 1533 1533 1534 1536 1538 1541 1544 1546 1549 1551
1522 1522 1528 1530 1529 1529 1529 1530 1531 1529 1526 1526 1526 1527 1527 1526 1526 1526 1525 1523 1522 1521 1520 1519 1519 1519 1518 1518 1519 1520 1522 1523 1524 1526 1528 1530 1531 1531 1532 1532 1531 1532 1534 1538 1541 1543 1547 1549 1550
1525 1531 1530 1531 1531 1531 1529 1528 1527 1528 1526 1526 1526 1525 1525 1526 1525 1525 1525 1524 1523 1522 1520 1519 1518 1518 1517 1517 1517 1517 1518 1519 1520 1522 1523 1525 1526 1527 1529 1531 1531 1533 1535 1538 1541 1541 1545 1549 1550
1524 1529 1531 1532 1532 1532 1530 1527 1525 1522 1523 1524 1524 1524 1524 1524 1524 1524 1524 1524 1524 1523 1521 1520 1518 1517 1516 1516 1515 1515 1515 1515 1516 1517 1518 1519 1520 1522 1526 1528 1529 1531 1535 1536 1539 1540 1543 1547 1549
1531 1532 1531 1530 1529 1528 1528 1526 1526 1519 1519 1520 1521 1522 1522 1523 1523 1523 1523 1524 1524 1523 1521 1520 1519 1517 1516 1515 1514 1513 1512 1512 1512 1513 1512 1511 1508 1517 1521 1524 1527 1528 1531 1534 1534 1538 1541 1545 1547
1533 1531 1530 1529 1528 1526 1525 1520 1520 1519 1519 1520 1520 1519 1520 1521 1522 1523 1523 1523 1523 1522 1521 1520 1518 1516 1515 1513 1512 1511 1510 1509 1508 1508 1507 1509 1510 1509 1517 1521 1523 1525 1528 1530 1532 1535 1539 1542 1545
1528 1528 1524 1530 1531 1530 1528 1510 1515 1517 1520 1519 1518 1519 1518 1517 1520 1522 1522 1522 1522 1521 1520 1518 1517 1515 1513 1511 1509 1507 1506 1505 1505 1504 1504 1505 1506 1509 1516 1510 1517 1517 1520 1529 1532 1532 1536 1540 1543
1525 1520 1525 1525 1531 1532 1527 1514 1516 1518 1519 1516 1516 1517 1518 1519 1518 1518 1520 1520 1520 1519 1518 1516 1514 1512 1509 1507 1505 1503 1502 1501 1501 1500 1500 1502 1505 1507 1508 1509 1512 1514 1514 1518 1528 1529 1531 1538 1541
1527 1525 1527 1526 1528 1528 1523 1518 1516 1516 1515 1514 1513 1515 1517 1519 1520 1519 1519 1519 1519 1517 1515 1513 1510 1508 1505 1502 1500 1498 1497 1497 1496 1497 1497 1498 1500 1501 1503 1505 1505 1506 1509 1518 1518 1523 1526 1535 1538
1536 1533 1530 1528 1533 1530 1520 1519 1514 1514 1513 1510 1511 1513 1516 1520 1522 1522 1521 1519 1518 1516 1513 1510 1506 1504 1501 1498 1496 1495 1494 1493 1493 1493 1493 1493 1495 1496 1498 1499 1500 1501 1504 1509 1512 1514 1518 1526 1537
1538 1532 1526 1528 1534 1534 1520 1514 1514 1514 1514 1515 1515 1516 1519 1523 1523 1523 1522 1520 1517 1514 1511 1508 1505 1501 1498 1495 1493 1491 1490 1489 1488 1489 1489 1490 1490 1492 1494 1496 1498 1500 1502 1505 1507 1512 1510 1518 1525
1540 1536 1535 1538 1534 1533 1527 1511 1512 1515 1514 1515 1518 1521 1523 1524 1525 1524 1521 1518 1516 1513 1510 1506 1502 1499 1496 1493 1490 1489 1487 1485 1485 1485 1485 1486 1487 1489 1491 1492 1495 1496 1498 1499 1502 1506 1508 1511 1519
1539 1543 1544 1543 1536 1524 1530 1512 1514 1516 1516 1518 1519 1523 1526 1526 1525 1523 1520 1517 1514 1511 1508 1504 1501 1497 1493 1490 1488 1486 1484 1482 1481 1481 1481 1481 1482 1484 1486 1489 1491 1493 1494 1497 1501 1504 1506 1509 1513
1539 1545 1545 1543 1537 1539 1528 1523 1512 1517 1518 1521 1523 1525 1527 1527 1525 1522 1519 1515 1512 1509 1506 1502 1499 1495 1492 1488 1485 1482 1480 1479 1478 1477 1476 1477 1477 1479 1482 1485 1487 1489 1490 1494 1499 1500 1502 1505 1508
1541 1539 1541 1540 1536 1528 1533 1529 1513 1520 1526 1525 1525 1525 1526 1525 1522 1519 1516 1512 1509 1506 1503 1500 1496 1492 1489 1485 1482 1479 1477 1476 1474 1474 1472 1472 1473 1474 1476 1479 1482 1485 1487 1488 1492 1494 1498 1499 1503
1535 1532 1526 1524 1525 1519 1535 1531 1519 1528 1528 1528 1529 1526 1524 1522 1519 1515 1512 1508 1505 1503 1501 1497 1493 1488 1484 1480 1477 1474 1472 1471 1470 1469 1469 1468 1468 1469 1471 1473 1476 1478 1482 1485 1487 1490 1493 1494 1499
1535 1532 1535 1534 1525 1518 1535 1523 1519 1528 1530 1529 1529 1527 1524 1520 1518 1515 1510 1506 1504 1501 1498 1495 1490 1484 1479 1474 1471 1468 1466 1465 1465 1464 1464 1464 1464 1465 1467 1468 1470 1473 1477 1479 1483 1485 1486 1491 1494
1542 1535 1541 1540 1549 1541 1520 1519 1526 1527 1528 1529 1527 1526 1523 1520 1516 1512 1509 1507 1504 1500 1496 1492 1487 1481 1475 1469 1465 1462 1460 1460 1460 1460 1460 1459 1460 1461 1463 1464 1466 1469 1472 1474 1476 1479 1481 1485 1489
1541 1542 1537 1536 1535 1524 1516 1518 1507 1527 1530 1530 1527 1526 1524 1521 1517 1514 1511 1508 1504 1498 1494 1490 1485 1478 1472 1466 1462 1458 1455 1453 1454 1455 1455 1454 1455 1457 1459 1461 1463 1465 1468 1470 1472 1474 1477 1480 1483
1544 1541 1541 1540 1537 1527 1520 1510 1527 1531 1532 1531 1531 1529 1527 1523 1519 1514 1511 1507 1502 1497 1492 1487 1482 1476 1469 1464 1460 1455 1452 1449 1449 1450 1451 1451 1452 1453 1455 1457 1459 1461 1463 1466 1467 1469 1472 1475 1478
1541 1537 1534 1533 1535 1539 1540 1518 1532 1533 1534 1533 1532 1529 1526 1523 1519 1514 1510 1506 1501 1496 1491 1485 1480 1473 1468 1462 1457 1452 1449 1447 1446 1446 1447 1448 1448 1450 1451 1453 1455 1457 1459 1461 1464 1465 1468 1471 1475